TimeSAST,TemperatureF,Dew PointF,Humidity,Sea Level PressureIn,VisibilityMPH,Wind Direction,Wind SpeedMPH,Gust SpeedMPH,PrecipitationIn,Events,Conditions,WindDirDegrees,DateUTC
12:00 AM,66.2,62.6,88,30.01,5.6,SE,8.1,-,N/A,,Overcast,130,2012-12-13 22:00:00
1:00 AM,66.2,64.4,94,30.01,1.6,East,8.1,-,N/A,,Mist,90,2012-12-13 23:00:00
4:00 AM,66.2,64.4,94,29.95,-9999.0,ESE,3.5,-,N/A,,Mist,120,2012-12-14 02:00:00
5:00 AM,66.2,64.4,94,29.95,0.6,ESE,9.2,-,N/A,Fog,Fog,120,2012-12-14 03:00:00
6:00 AM,64.4,62.6,94,29.95,0.4,ESE,8.1,-,N/A,Fog,Fog,120,2012-12-14 04:00:00
7:00 AM,64.4,64.4,100,29.98,0.2,East,5.8,-,N/A,Fog,Fog,100,2012-12-14 05:00:00
8:00 AM,66,64,92,29.99,3,East,3.5,,,,Mist,100,2012-12-14 06:00:00
8:00 AM,66.2,64.4,94,29.98,3.1,East,3.5,-,N/A,,Mostly Cloudy,100,2012-12-14 06:00:00
9:00 AM,66.2,64.4,94,29.98,6.2,SSE,3.5,-,N/A,,Mostly Cloudy,150,2012-12-14 07:00:00
10:00 AM,71.6,64.4,78,29.95,6.2,SE,5.8,-,N/A,,Mostly Cloudy,140,2012-12-14 08:00:00
11:00 AM,72,65,73,29.96,12,SSE,4.6,,,,Mostly Cloudy,160,2012-12-14 09:00:00
11:00 AM,73.4,66.2,78,29.95,6.2,SSE,3.5,-,N/A,,Mostly Cloudy,160,2012-12-14 09:00:00
12:00 PM,73.4,66.2,78,29.92,6.2,SSE,8.1,-,N/A,,Mostly Cloudy,150,2012-12-14 10:00:00
1:00 PM,77.0,66.2,69,29.89,6.2,Variable,4.6,-,N/A,,Mostly Cloudy,0,2012-12-14 11:00:00
2:00 PM,76,67,67,29.86,12,SSE,9.2,,,,Partly Cloudy,150,2012-12-14 12:00:00
2:00 PM,75.2,66.2,73,29.89,6.2,SE,9.2,-,N/A,,Scattered Clouds,140,2012-12-14 12:00:00
3:00 PM,78.8,66.2,65,29.86,6.2,ESE,9.2,-,N/A,,Partly Cloudy,120,2012-12-14 13:00:00
4:00 PM,77.0,66.2,69,29.83,6.2,SE,10.4,-,N/A,,Partly Cloudy,140,2012-12-14 14:00:00
5:00 PM,75,65,65,29.81,12,SE,6.9,,,,Scattered Clouds,130,2012-12-14 15:00:00
5:00 PM,75.2,66.2,73,29.83,6.2,SE,6.9,-,N/A,,Partly Cloudy,130,2012-12-14 15:00:00
6:00 PM,73.4,66.2,78,29.83,6.2,SSE,5.8,-,N/A,,Partly Cloudy,160,2012-12-14 16:00:00
7:00 PM,69.8,64.4,83,29.86,6.2,SW,4.6,-,N/A,,Partly Cloudy,220,2012-12-14 17:00:00
8:00 PM,68,65,85,29.85,12,SW,4.6,,,,Scattered Clouds,230,2012-12-14 18:00:00
8:00 PM,68.0,64.4,88,29.86,6.2,SW,4.6,-,N/A,,Partly Cloudy,230,2012-12-14 18:00:00
9:00 PM,66.2,64.4,94,29.86,5.0,West,5.8,-,N/A,,Mostly Cloudy,270,2012-12-14 19:00:00
11:00 PM,66.2,64.4,94,29.89,4.3,West,8.1,-,N/A,,Mostly Cloudy,280,2012-12-14 21:00:00